Time,TemperatureF,DewpointF,PressureIn,WindDirection,WindDirectionDegrees,WindSpeedMPH,WindSpeedGustMPH,Humidity,HourlyPrecipIn,Conditions,Clouds,dailyrainin,SoftwareType,DateUTC
2013-05-12 00:00:00,43.0,-99.9,-100.00,SE,144,6.0,7.0,-999,-99.99,,,-99.99,,2013-05-12 06:00:00,
2013-05-12 00:32:00,43.0,-99.9,-100.00,SE,144,6.0,7.0,-999,-99.99,,,-99.99,,2013-05-12 06:32:00,
2013-05-12 00:42:00,43.0,-99.9,-100.00,SE,144,6.0,7.0,-999,-99.99,,,-99.99,,2013-05-12 06:42:00,
2013-05-12 00:52:00,43.0,-99.9,-100.00,SE,144,6.0,7.0,-999,-99.99,,,-99.99,,2013-05-12 06:52:00,
2013-05-12 02:00:00,41.0,-99.9,-100.00,SSE,155,7.0,8.0,-999,-99.99,,,-99.99,,2013-05-12 08:00:00,
2013-05-12 02:32:00,41.0,-99.9,-100.00,SSE,155,7.0,8.0,-999,-99.99,,,-99.99,,2013-05-12 08:32:00,
2013-05-12 02:42:00,41.0,-99.9,-100.00,SSE,155,7.0,8.0,-999,-99.99,,,-99.99,,2013-05-12 08:42:00,
2013-05-12 02:53:00,41.0,-99.9,-100.00,SSE,155,7.0,8.0,-999,-99.99,,,-99.99,,2013-05-12 08:53:00,
2013-05-12 03:00:00,41.0,-99.9,-100.00,SSE,158,6.0,8.0,-999,-99.99,,,-99.99,,2013-05-12 09:00:00,
2013-05-12 03:33:00,41.0,-99.9,-100.00,SSE,158,6.0,8.0,-999,-99.99,,,-99.99,,2013-05-12 09:33:00,
2013-05-12 03:43:00,41.0,-99.9,-100.00,SSE,158,6.0,8.0,-999,-99.99,,,-99.99,,2013-05-12 09:43:00,
2013-05-12 03:53:00,41.0,-99.9,-100.00,SSE,158,6.0,8.0,-999,-99.99,,,-99.99,,2013-05-12 09:53:00,
2013-05-12 04:00:00,40.0,-99.9,-100.00,SSE,155,14.0,14.0,-999,-99.99,,,-99.99,,2013-05-12 10:00:00,
2013-05-12 04:33:00,40.0,-99.9,-100.00,SSE,155,14.0,14.0,-999,-99.99,,,-99.99,,2013-05-12 10:33:00,
2013-05-12 04:42:00,40.0,-99.9,-100.00,SSE,155,14.0,14.0,-999,-99.99,,,-99.99,,2013-05-12 10:42:00,
2013-05-12 04:52:00,40.0,-99.9,-100.00,SSE,155,14.0,14.0,-999,-99.99,,,-99.99,,2013-05-12 10:52:00,
2013-05-12 05:00:00,37.0,-99.9,-100.00,SSE,156,7.0,8.0,-999,-99.99,,,-99.99,,2013-05-12 11:00:00,
2013-05-12 05:32:00,37.0,-99.9,-100.00,SSE,156,7.0,8.0,-999,-99.99,,,-99.99,,2013-05-12 11:32:00,
2013-05-12 05:42:00,37.0,-99.9,-100.00,SSE,156,7.0,8.0,-999,-99.99,,,-99.99,,2013-05-12 11:42:00,
2013-05-12 05:52:00,37.0,-99.9,-100.00,SSE,156,7.0,8.0,-999,-99.99,,,-99.99,,2013-05-12 11:52:00,
2013-05-12 07:00:00,42.0,-99.9,-100.00,ESE,112,5.0,5.0,-999,-99.99,,,-99.99,,2013-05-12 13:00:00,
2013-05-12 07:32:00,42.0,-99.9,-100.00,ESE,112,5.0,5.0,-999,-99.99,,,-99.99,,2013-05-12 13:32:00,
2013-05-12 07:42:00,42.0,-99.9,-100.00,ESE,112,5.0,5.0,-999,-99.99,,,-99.99,,2013-05-12 13:42:00,
2013-05-12 07:52:00,42.0,-99.9,-100.00,ESE,112,5.0,5.0,-999,-99.99,,,-99.99,,2013-05-12 13:52:00,
2013-05-12 08:00:00,49.0,-99.9,-100.00,SE,143,7.0,9.0,-999,-99.99,,,-99.99,,2013-05-12 14:00:00,
2013-05-12 08:32:00,49.0,-99.9,-100.00,SE,143,7.0,9.0,-999,-99.99,,,-99.99,,2013-05-12 14:32:00,
2013-05-12 08:42:00,49.0,-99.9,-100.00,SE,143,7.0,9.0,-999,-99.99,,,-99.99,,2013-05-12 14:42:00,
2013-05-12 08:52:00,49.0,-99.9,-100.00,SE,143,7.0,9.0,-999,-99.99,,,-99.99,,2013-05-12 14:52:00,
2013-05-12 09:00:00,53.0,-99.9,-100.00,SE,146,3.0,6.0,-999,-99.99,,,-99.99,,2013-05-12 15:00:00,
2013-05-12 09:34:00,53.0,-99.9,-100.00,SE,146,3.0,6.0,-999,-99.99,,,-99.99,,2013-05-12 15:34:00,
2013-05-12 09:43:00,53.0,-99.9,-100.00,SE,146,3.0,6.0,-999,-99.99,,,-99.99,,2013-05-12 15:43:00,
2013-05-12 09:53:00,53.0,-99.9,-100.00,SE,146,3.0,6.0,-999,-99.99,,,-99.99,,2013-05-12 15:53:00,
2013-05-12 10:00:00,58.0,-99.9,-100.00,WNW,287,4.0,13.0,-999,-99.99,,,-99.99,,2013-05-12 16:00:00,
2013-05-12 10:33:00,58.0,-99.9,-100.00,WNW,287,4.0,13.0,-999,-99.99,,,-99.99,,2013-05-12 16:33:00,
2013-05-12 10:42:00,58.0,-99.9,-100.00,WNW,287,4.0,13.0,-999,-99.99,,,-99.99,,2013-05-12 16:42:00,
2013-05-12 10:53:00,58.0,-99.9,-100.00,WNW,287,4.0,13.0,-999,-99.99,,,-99.99,,2013-05-12 16:53:00,
2013-05-12 11:00:00,62.0,-99.9,-100.00,West,272,16.0,20.0,-999,-99.99,,,-99.99,,2013-05-12 17:00:00,
2013-05-12 11:32:00,62.0,-99.9,-100.00,West,272,16.0,20.0,-999,-99.99,,,-99.99,,2013-05-12 17:32:00,
2013-05-12 11:42:00,62.0,-99.9,-100.00,West,272,16.0,20.0,-999,-99.99,,,-99.99,,2013-05-12 17:42:00,
2013-05-12 11:53:00,62.0,-99.9,-100.00,West,272,16.0,20.0,-999,-99.99,,,-99.99,,2013-05-12 17:53:00,
2013-05-12 12:00:00,65.0,-99.9,-100.00,WNW,299,17.0,23.0,-999,-99.99,,,-99.99,,2013-05-12 18:00:00,
2013-05-12 12:32:00,65.0,-99.9,-100.00,WNW,299,17.0,23.0,-999,-99.99,,,-99.99,,2013-05-12 18:32:00,
2013-05-12 12:42:00,65.0,-99.9,-100.00,WNW,299,17.0,23.0,-999,-99.99,,,-99.99,,2013-05-12 18:42:00,
2013-05-12 12:52:00,65.0,-99.9,-100.00,WNW,299,17.0,23.0,-999,-99.99,,,-99.99,,2013-05-12 18:52:00,
2013-05-12 13:00:00,63.0,-99.9,-100.00,WNW,299,19.0,19.0,-999,-99.99,,,-99.99,,2013-05-12 19:00:00,
2013-05-12 13:32:00,63.0,-99.9,-100.00,WNW,299,19.0,19.0,-999,-99.99,,,-99.99,,2013-05-12 19:32:00,
2013-05-12 13:42:00,63.0,-99.9,-100.00,WNW,299,19.0,19.0,-999,-99.99,,,-99.99,,2013-05-12 19:42:00,
2013-05-12 13:52:00,63.0,-99.9,-100.00,WNW,299,19.0,19.0,-999,-99.99,,,-99.99,,2013-05-12 19:52:00,
2013-05-12 14:00:00,66.0,-99.9,-100.00,West,268,23.0,29.0,-999,-99.99,,,-99.99,,2013-05-12 20:00:00,
2013-05-12 14:32:00,66.0,-99.9,-100.00,West,268,23.0,29.0,-999,-99.99,,,-99.99,,2013-05-12 20:32:00,
2013-05-12 14:42:00,66.0,-99.9,-100.00,West,268,23.0,29.0,-999,-99.99,,,-99.99,,2013-05-12 20:42:00,
2013-05-12 14:52:00,66.0,-99.9,-100.00,West,268,23.0,29.0,-999,-99.99,,,-99.99,,2013-05-12 20:52:00,
2013-05-12 15:00:00,68.0,-99.9,-100.00,NW,309,18.0,23.0,-999,-99.99,,,-99.99,,2013-05-12 21:00:00,
2013-05-12 15:33:00,68.0,-99.9,-100.00,NW,309,18.0,23.0,-999,-99.99,,,-99.99,,2013-05-12 21:33:00,
2013-05-12 15:43:00,68.0,-99.9,-100.00,NW,309,18.0,23.0,-999,-99.99,,,-99.99,,2013-05-12 21:43:00,
2013-05-12 15:53:00,68.0,-99.9,-100.00,NW,309,18.0,23.0,-999,-99.99,,,-99.99,,2013-05-12 21:53:00,
2013-05-12 16:00:00,69.0,-99.9,-100.00,WSW,248,18.0,22.0,-999,-99.99,,,-99.99,,2013-05-12 22:00:00,
2013-05-12 16:33:00,69.0,-99.9,-100.00,WSW,248,18.0,22.0,-999,-99.99,,,-99.99,,2013-05-12 22:33:00,
2013-05-12 16:42:00,69.0,-99.9,-100.00,WSW,248,18.0,22.0,-999,-99.99,,,-99.99,,2013-05-12 22:42:00,
2013-05-12 16:52:00,69.0,-99.9,-100.00,WSW,248,18.0,22.0,-999,-99.99,,,-99.99,,2013-05-12 22:52:00,
2013-05-12 17:00:00,68.0,-99.9,-100.00,WNW,285,12.0,17.0,-999,-99.99,,,-99.99,,2013-05-12 23:00:00,
2013-05-12 17:32:00,68.0,-99.9,-100.00,WNW,285,12.0,17.0,-999,-99.99,,,-99.99,,2013-05-12 23:32:00,
2013-05-12 17:42:00,68.0,-99.9,-100.00,WNW,285,12.0,17.0,-999,-99.99,,,-99.99,,2013-05-12 23:42:00,
2013-05-12 17:52:00,68.0,-99.9,-100.00,WNW,285,12.0,17.0,-999,-99.99,,,-99.99,,2013-05-12 23:52:00,
2013-05-12 19:00:00,67.0,-99.9,-100.00,WNW,299,13.0,16.0,-999,-99.99,,,-99.99,,2013-05-13 01:00:00,
2013-05-12 19:32:00,67.0,-99.9,-100.00,WNW,299,13.0,16.0,-999,-99.99,,,-99.99,,2013-05-13 01:32:00,
2013-05-12 19:42:00,67.0,-99.9,-100.00,WNW,299,13.0,16.0,-999,-99.99,,,-99.99,,2013-05-13 01:42:00,
2013-05-12 19:52:00,67.0,-99.9,-100.00,WNW,299,13.0,16.0,-999,-99.99,,,-99.99,,2013-05-13 01:52:00,
2013-05-12 20:00:00,61.0,-99.9,-100.00,WNW,291,3.0,5.0,-999,-99.99,,,-99.99,,2013-05-13 02:00:00,
2013-05-12 20:32:00,61.0,-99.9,-100.00,WNW,291,3.0,5.0,-999,-99.99,,,-99.99,,2013-05-13 02:32:00,
2013-05-12 20:42:00,61.0,-99.9,-100.00,WNW,291,3.0,5.0,-999,-99.99,,,-99.99,,2013-05-13 02:42:00,
2013-05-12 20:52:00,61.0,-99.9,-100.00,WNW,291,3.0,5.0,-999,-99.99,,,-99.99,,2013-05-13 02:52:00,
2013-05-12 21:00:00,54.0,-99.9,-100.00,NNE,14,2.0,4.0,-999,-99.99,,,-99.99,,2013-05-13 03:00:00,
2013-05-12 21:33:00,54.0,-99.9,-100.00,NNE,14,2.0,4.0,-999,-99.99,,,-99.99,,2013-05-13 03:33:00,
2013-05-12 21:42:00,54.0,-99.9,-100.00,NNE,14,2.0,4.0,-999,-99.99,,,-99.99,,2013-05-13 03:42:00,
2013-05-12 21:53:00,54.0,-99.9,-100.00,NNE,14,2.0,4.0,-999,-99.99,,,-99.99,,2013-05-13 03:53:00,
2013-05-12 22:00:00,53.0,-99.9,-100.00,SSW,201,3.0,3.0,-999,-99.99,,,-99.99,,2013-05-13 04:00:00,
2013-05-12 22:33:00,53.0,-99.9,-100.00,SSW,201,3.0,3.0,-999,-99.99,,,-99.99,,2013-05-13 04:33:00,
2013-05-12 22:42:00,53.0,-99.9,-100.00,SSW,201,3.0,3.0,-999,-99.99,,,-99.99,,2013-05-13 04:42:00,
2013-05-12 22:53:00,53.0,-99.9,-100.00,SSW,201,3.0,3.0,-999,-99.99,,,-99.99,,2013-05-13 04:53:00,
2013-05-12 23:00:00,48.0,-99.9,-100.00,SW,222,8.0,10.0,-999,-99.99,,,-99.99,,2013-05-13 05:00:00,
2013-05-12 23:32:00,48.0,-99.9,-100.00,SW,222,8.0,10.0,-999,-99.99,,,-99.99,,2013-05-13 05:32:00,
2013-05-12 23:42:00,48.0,-99.9,-100.00,SW,222,8.0,10.0,-999,-99.99,,,-99.99,,2013-05-13 05:42:00,
2013-05-12 23:52:00,48.0,-99.9,-100.00,SW,222,8.0,10.0,-999,-99.99,,,-99.99,,2013-05-13 05:52:00,